Time,TemperatureF,DewpointF,PressureIn,WindDirection,WindDirectionDegrees,WindSpeedMPH,WindSpeedGustMPH,Humidity,HourlyPrecipIn,Conditions,Clouds,dailyrainin,SoftwareType,DateUTC
2013-06-15 00:03:00,69.4,60.4,29.84,South,180,0.0,-999.0,73,0.00,,,0.09,Wunderground v.1.15,2013-06-15 05:03:00,
2013-06-15 00:08:00,69.4,60.4,29.84,South,180,0.0,-999.0,73,0.00,,,0.09,Wunderground v.1.15,2013-06-15 05:08:00,
2013-06-15 00:13:00,69.4,60.4,29.84,South,180,0.0,-999.0,73,0.00,,,0.09,Wunderground v.1.15,2013-06-15 05:13:00,
2013-06-15 00:18:00,69.4,60.4,29.84,South,180,0.0,-999.0,73,0.00,,,0.09,Wunderground v.1.15,2013-06-15 05:18:00,
2013-06-15 00:23:00,69.4,60.4,29.84,South,180,0.0,-999.0,73,0.00,,,0.09,Wunderground v.1.15,2013-06-15 05:23:00,
2013-06-15 00:28:00,69.4,60.4,29.84,South,180,0.0,-999.0,73,0.00,,,0.09,Wunderground v.1.15,2013-06-15 05:28:00,
2013-06-15 00:33:00,69.4,60.4,29.84,South,180,0.0,-999.0,73,0.00,,,0.09,Wunderground v.1.15,2013-06-15 05:33:00,
2013-06-15 00:38:00,69.4,60.4,29.84,South,180,0.0,-999.0,73,0.00,,,0.09,Wunderground v.1.15,2013-06-15 05:38:00,
2013-06-15 00:43:00,69.4,60.4,29.84,South,180,0.0,-999.0,73,0.00,,,0.09,Wunderground v.1.15,2013-06-15 05:43:00,
2013-06-15 00:48:00,68.5,61.0,29.84,South,180,2.0,-999.0,77,0.00,,,0.09,Wunderground v.1.15,2013-06-15 05:48:00,
2013-06-15 00:53:00,68.5,61.0,29.84,South,180,2.0,-999.0,77,0.00,,,0.09,Wunderground v.1.15,2013-06-15 05:53:00,
2013-06-15 00:58:00,68.5,61.0,29.84,South,180,2.0,-999.0,77,0.00,,,0.09,Wunderground v.1.15,2013-06-15 05:58:00,
2013-06-15 01:03:00,68.5,61.0,29.84,South,180,2.0,-999.0,77,0.00,,,0.09,Wunderground v.1.15,2013-06-15 06:03:00,
2013-06-15 01:08:00,68.5,61.0,29.84,South,180,2.0,-999.0,77,0.00,,,0.09,Wunderground v.1.15,2013-06-15 06:08:00,
2013-06-15 01:13:00,68.5,61.0,29.84,South,180,2.0,-999.0,77,0.00,,,0.09,Wunderground v.1.15,2013-06-15 06:13:00,
2013-06-15 01:18:00,66.5,61.2,29.83,South,180,2.0,-999.0,83,0.00,,,0.09,Wunderground v.1.15,2013-06-15 06:18:00,
2013-06-15 01:23:00,66.5,61.2,29.83,South,180,2.0,-999.0,83,0.00,,,0.09,Wunderground v.1.15,2013-06-15 06:23:00,
2013-06-15 01:28:00,66.5,61.2,29.83,South,180,2.0,-999.0,83,0.00,,,0.09,Wunderground v.1.15,2013-06-15 06:28:00,
2013-06-15 01:33:00,66.5,61.2,29.83,South,180,2.0,-999.0,83,0.00,,,0.09,Wunderground v.1.15,2013-06-15 06:33:00,
2013-06-15 01:38:00,66.5,61.2,29.83,South,180,2.0,-999.0,83,0.00,,,0.09,Wunderground v.1.15,2013-06-15 06:38:00,
2013-06-15 01:43:00,66.5,61.2,29.83,South,180,2.0,-999.0,83,0.00,,,0.09,Wunderground v.1.15,2013-06-15 06:43:00,
2013-06-15 01:48:00,66.2,61.2,29.83,South,180,1.0,-999.0,84,0.00,,,0.09,Wunderground v.1.15,2013-06-15 06:48:00,
2013-06-15 01:53:00,66.2,61.2,29.83,South,180,1.0,-999.0,84,0.00,,,0.09,Wunderground v.1.15,2013-06-15 06:53:00,
2013-06-15 01:58:00,66.2,61.2,29.83,South,180,1.0,-999.0,84,0.00,,,0.09,Wunderground v.1.15,2013-06-15 06:58:00,
2013-06-15 02:03:00,66.2,61.2,29.83,South,180,1.0,-999.0,84,0.00,,,0.09,Wunderground v.1.15,2013-06-15 07:03:00,
2013-06-15 02:08:00,66.2,61.2,29.83,South,180,1.0,-999.0,84,0.00,,,0.09,Wunderground v.1.15,2013-06-15 07:08:00,
2013-06-15 02:13:00,66.2,61.2,29.83,South,180,1.0,-999.0,84,0.00,,,0.09,Wunderground v.1.15,2013-06-15 07:13:00,
2013-06-15 02:18:00,66.1,61.5,29.84,SSE,158,0.0,-999.0,85,0.00,,,0.09,Wunderground v.1.15,2013-06-15 07:18:00,
2013-06-15 02:23:00,66.1,61.5,29.84,SSE,158,0.0,-999.0,85,0.00,,,0.09,Wunderground v.1.15,2013-06-15 07:23:00,
2013-06-15 02:28:00,66.1,61.5,29.84,SSE,158,0.0,-999.0,85,0.00,,,0.09,Wunderground v.1.15,2013-06-15 07:28:00,
2013-06-15 02:33:00,66.1,61.5,29.84,SSE,158,0.0,-999.0,85,0.00,,,0.09,Wunderground v.1.15,2013-06-15 07:33:00,
2013-06-15 02:38:00,66.1,61.5,29.84,SSE,158,0.0,-999.0,85,0.00,,,0.09,Wunderground v.1.15,2013-06-15 07:38:00,
2013-06-15 02:43:00,66.1,61.5,29.84,SSE,158,0.0,-999.0,85,0.00,,,0.09,Wunderground v.1.15,2013-06-15 07:43:00,
2013-06-15 02:48:00,66.0,61.4,29.83,SSE,158,0.0,-999.0,85,0.00,,,0.09,Wunderground v.1.15,2013-06-15 07:48:00,
2013-06-15 02:53:00,66.0,61.4,29.83,SSE,158,0.0,-999.0,85,0.00,,,0.09,Wunderground v.1.15,2013-06-15 07:53:00,
2013-06-15 02:58:00,66.0,61.4,29.83,SSE,158,0.0,-999.0,85,0.00,,,0.09,Wunderground v.1.15,2013-06-15 07:58:00,
2013-06-15 03:03:00,66.0,61.4,29.83,SSE,158,0.0,-999.0,85,0.00,,,0.09,Wunderground v.1.15,2013-06-15 08:03:00,
2013-06-15 03:08:00,66.0,61.4,29.83,SSE,158,0.0,-999.0,85,0.00,,,0.09,Wunderground v.1.15,2013-06-15 08:08:00,
2013-06-15 03:13:00,66.0,61.4,29.83,SSE,158,0.0,-999.0,85,0.00,,,0.09,Wunderground v.1.15,2013-06-15 08:13:00,
2013-06-15 03:18:00,65.4,61.1,29.82,SSE,158,0.0,-999.0,86,0.00,,,0.09,Wunderground v.1.15,2013-06-15 08:18:00,
2013-06-15 03:23:00,65.4,61.1,29.82,SSE,158,0.0,-999.0,86,0.00,,,0.09,Wunderground v.1.15,2013-06-15 08:23:00,
2013-06-15 03:28:00,65.4,61.1,29.82,SSE,158,0.0,-999.0,86,0.00,,,0.09,Wunderground v.1.15,2013-06-15 08:28:00,
2013-06-15 03:33:00,65.4,61.1,29.82,SSE,158,0.0,-999.0,86,0.00,,,0.09,Wunderground v.1.15,2013-06-15 08:33:00,
2013-06-15 03:38:00,65.4,61.1,29.82,SSE,158,0.0,-999.0,86,0.00,,,0.09,Wunderground v.1.15,2013-06-15 08:38:00,
2013-06-15 03:43:00,65.4,61.1,29.82,SSE,158,0.0,-999.0,86,0.00,,,0.09,Wunderground v.1.15,2013-06-15 08:43:00,
2013-06-15 03:48:00,64.7,60.7,29.82,South,180,0.0,-999.0,87,0.00,,,0.09,Wunderground v.1.15,2013-06-15 08:48:00,
2013-06-15 03:53:00,64.7,60.7,29.82,South,180,0.0,-999.0,87,0.00,,,0.09,Wunderground v.1.15,2013-06-15 08:53:00,
2013-06-15 03:58:00,64.7,60.7,29.82,South,180,0.0,-999.0,87,0.00,,,0.09,Wunderground v.1.15,2013-06-15 08:58:00,
2013-06-15 04:03:00,64.7,60.7,29.82,South,180,0.0,-999.0,87,0.00,,,0.09,Wunderground v.1.15,2013-06-15 09:03:00,
2013-06-15 04:08:00,64.7,60.7,29.82,South,180,0.0,-999.0,87,0.00,,,0.09,Wunderground v.1.15,2013-06-15 09:08:00,
2013-06-15 04:13:00,64.7,60.7,29.82,South,180,0.0,-999.0,87,0.00,,,0.09,Wunderground v.1.15,2013-06-15 09:13:00,
2013-06-15 04:18:00,64.2,60.6,29.81,N/A,-737280,0.0,-999.0,88,0.00,,,0.09,Wunderground v.1.15,2013-06-15 09:18:00,
2013-06-15 04:23:00,64.2,60.6,29.81,N/A,-737280,0.0,-999.0,88,0.00,,,0.09,Wunderground v.1.15,2013-06-15 09:23:00,
2013-06-15 04:28:00,64.2,60.6,29.81,N/A,-737280,0.0,-999.0,88,0.00,,,0.09,Wunderground v.1.15,2013-06-15 09:28:00,
2013-06-15 04:33:00,64.2,60.6,29.81,N/A,-737280,0.0,-999.0,88,0.00,,,0.09,Wunderground v.1.15,2013-06-15 09:33:00,
2013-06-15 04:38:00,64.2,60.6,29.81,N/A,-737280,0.0,-999.0,88,0.00,,,0.09,Wunderground v.1.15,2013-06-15 09:38:00,
2013-06-15 04:43:00,64.2,60.6,29.81,N/A,-737280,0.0,-999.0,88,0.00,,,0.09,Wunderground v.1.15,2013-06-15 09:43:00,
2013-06-15 04:48:00,63.5,59.9,29.82,South,180,0.0,-999.0,88,0.00,,,0.09,Wunderground v.1.15,2013-06-15 09:48:00,
2013-06-15 04:53:00,63.5,59.9,29.82,South,180,0.0,-999.0,88,0.00,,,0.09,Wunderground v.1.15,2013-06-15 09:53:00,
2013-06-15 04:58:00,63.5,59.9,29.82,South,180,0.0,-999.0,88,0.00,,,0.09,Wunderground v.1.15,2013-06-15 09:58:00,
2013-06-15 05:03:00,63.5,59.9,29.82,South,180,0.0,-999.0,88,0.00,,,0.09,Wunderground v.1.15,2013-06-15 10:03:00,
2013-06-15 05:08:00,63.5,59.9,29.82,South,180,0.0,-999.0,88,0.00,,,0.09,Wunderground v.1.15,2013-06-15 10:08:00,
2013-06-15 05:13:00,63.5,59.9,29.82,South,180,0.0,-999.0,88,0.00,,,0.09,Wunderground v.1.15,2013-06-15 10:13:00,
2013-06-15 05:18:00,63.2,59.9,29.82,N/A,-737280,0.0,-999.0,89,0.00,,,0.09,Wunderground v.1.15,2013-06-15 10:18:00,
2013-06-15 05:23:00,63.2,59.9,29.82,N/A,-737280,0.0,-999.0,89,0.00,,,0.09,Wunderground v.1.15,2013-06-15 10:23:00,
2013-06-15 05:28:00,63.2,59.9,29.82,N/A,-737280,0.0,-999.0,89,0.00,,,0.09,Wunderground v.1.15,2013-06-15 10:28:00,
2013-06-15 05:33:00,63.2,59.9,29.82,N/A,-737280,0.0,-999.0,89,0.00,,,0.09,Wunderground v.1.15,2013-06-15 10:33:00,
2013-06-15 05:38:00,63.2,59.9,29.82,N/A,-737280,0.0,-999.0,89,0.00,,,0.09,Wunderground v.1.15,2013-06-15 10:38:00,
2013-06-15 05:43:00,63.2,59.9,29.82,N/A,-737280,0.0,-999.0,89,0.00,,,0.09,Wunderground v.1.15,2013-06-15 10:43:00,
2013-06-15 05:48:00,63.5,60.5,29.81,N/A,-737280,0.0,-999.0,90,0.00,,,0.09,Wunderground v.1.15,2013-06-15 10:48:00,
2013-06-15 05:53:00,63.5,60.5,29.81,N/A,-737280,0.0,-999.0,90,0.00,,,0.09,Wunderground v.1.15,2013-06-15 10:53:00,
2013-06-15 05:58:00,63.5,60.5,29.81,N/A,-737280,0.0,-999.0,90,0.00,,,0.09,Wunderground v.1.15,2013-06-15 10:58:00,
2013-06-15 06:03:00,63.5,60.5,29.81,N/A,-737280,0.0,-999.0,90,0.00,,,0.09,Wunderground v.1.15,2013-06-15 11:03:00,
2013-06-15 06:08:00,63.5,60.5,29.81,N/A,-737280,0.0,-999.0,90,0.00,,,0.09,Wunderground v.1.15,2013-06-15 11:08:00,
2013-06-15 06:13:00,63.5,60.5,29.81,N/A,-737280,0.0,-999.0,90,0.00,,,0.09,Wunderground v.1.15,2013-06-15 11:13:00,
2013-06-15 06:18:00,63.8,61.1,29.81,South,180,0.0,-999.0,91,0.00,,,0.09,Wunderground v.1.15,2013-06-15 11:18:00,
2013-06-15 06:23:00,63.8,61.1,29.81,South,180,0.0,-999.0,91,0.00,,,0.09,Wunderground v.1.15,2013-06-15 11:23:00,
2013-06-15 06:28:00,63.8,61.1,29.81,South,180,0.0,-999.0,91,0.00,,,0.09,Wunderground v.1.15,2013-06-15 11:28:00,
2013-06-15 06:33:00,63.8,61.1,29.81,South,180,0.0,-999.0,91,0.00,,,0.09,Wunderground v.1.15,2013-06-15 11:33:00,
2013-06-15 06:38:00,63.8,61.1,29.81,South,180,0.0,-999.0,91,0.00,,,0.09,Wunderground v.1.15,2013-06-15 11:38:00,
2013-06-15 06:43:00,63.8,61.1,29.81,South,180,0.0,-999.0,91,0.00,,,0.09,Wunderground v.1.15,2013-06-15 11:43:00,
2013-06-15 06:48:00,65.4,62.4,29.83,South,180,0.0,-999.0,90,0.00,,,0.09,Wunderground v.1.15,2013-06-15 11:48:00,
2013-06-15 06:53:00,65.4,62.4,29.83,South,180,0.0,-999.0,90,0.00,,,0.09,Wunderground v.1.15,2013-06-15 11:53:00,
2013-06-15 06:58:00,65.4,62.4,29.83,South,180,0.0,-999.0,90,0.00,,,0.09,Wunderground v.1.15,2013-06-15 11:58:00,
2013-06-15 07:03:00,65.4,62.4,29.83,South,180,0.0,-999.0,90,0.00,,,0.09,Wunderground v.1.15,2013-06-15 12:03:00,
2013-06-15 07:08:00,65.4,62.4,29.83,South,180,0.0,-999.0,90,0.00,,,0.09,Wunderground v.1.15,2013-06-15 12:08:00,
2013-06-15 07:13:00,65.4,62.4,29.83,South,180,0.0,-999.0,90,0.00,,,0.09,Wunderground v.1.15,2013-06-15 12:13:00,
2013-06-15 07:18:00,66.5,63.5,29.83,South,180,0.0,-999.0,90,0.00,,,0.09,Wunderground v.1.15,2013-06-15 12:18:00,
2013-06-15 07:23:00,66.5,63.5,29.83,South,180,0.0,-999.0,90,0.00,,,0.09,Wunderground v.1.15,2013-06-15 12:23:00,
2013-06-15 07:28:00,66.5,63.5,29.83,South,180,0.0,-999.0,90,0.00,,,0.09,Wunderground v.1.15,2013-06-15 12:28:00,
2013-06-15 07:33:00,66.5,63.5,29.83,South,180,0.0,-999.0,90,0.00,,,0.09,Wunderground v.1.15,2013-06-15 12:33:00,
2013-06-15 07:38:00,66.5,63.5,29.83,South,180,0.0,-999.0,90,0.00,,,0.09,Wunderground v.1.15,2013-06-15 12:38:00,
2013-06-15 07:43:00,66.5,63.5,29.83,South,180,0.0,-999.0,90,0.00,,,0.09,Wunderground v.1.15,2013-06-15 12:43:00,
2013-06-15 07:48:00,67.7,64.0,29.82,South,180,0.0,-999.0,88,0.00,,,0.09,Wunderground v.1.15,2013-06-15 12:48:00,
2013-06-15 07:53:00,67.7,64.0,29.82,South,180,0.0,-999.0,88,0.00,,,0.09,Wunderground v.1.15,2013-06-15 12:53:00,
2013-06-15 07:58:00,67.7,64.0,29.82,South,180,0.0,-999.0,88,0.00,,,0.09,Wunderground v.1.15,2013-06-15 12:58:00,
2013-06-15 08:03:00,67.7,64.0,29.82,South,180,0.0,-999.0,88,0.00,,,0.09,Wunderground v.1.15,2013-06-15 13:03:00,
2013-06-15 08:08:00,67.7,64.0,29.82,South,180,0.0,-999.0,88,0.00,,,0.09,Wunderground v.1.15,2013-06-15 13:08:00,
2013-06-15 08:13:00,67.7,64.0,29.82,South,180,0.0,-999.0,88,0.00,,,0.09,Wunderground v.1.15,2013-06-15 13:13:00,
2013-06-15 08:18:00,69.8,65.1,29.82,WSW,248,0.0,-999.0,85,0.00,,,0.09,Wunderground v.1.15,2013-06-15 13:18:00,
2013-06-15 08:23:00,69.8,65.1,29.82,WSW,248,0.0,-999.0,85,0.00,,,0.09,Wunderground v.1.15,2013-06-15 13:23:00,
2013-06-15 08:28:00,69.8,65.1,29.82,WSW,248,0.0,-999.0,85,0.00,,,0.09,Wunderground v.1.15,2013-06-15 13:28:00,
2013-06-15 08:33:00,69.8,65.1,29.82,WSW,248,0.0,-999.0,85,0.00,,,0.09,Wunderground v.1.15,2013-06-15 13:33:00,
2013-06-15 08:38:00,69.8,65.1,29.82,WSW,248,0.0,-999.0,85,0.00,,,0.09,Wunderground v.1.15,2013-06-15 13:38:00,
2013-06-15 08:43:00,69.8,65.1,29.82,WSW,248,0.0,-999.0,85,0.00,,,0.09,Wunderground v.1.15,2013-06-15 13:43:00,
2013-06-15 08:48:00,71.7,66.3,29.83,West,270,0.0,-999.0,83,0.00,,,0.09,Wunderground v.1.15,2013-06-15 13:48:00,
2013-06-15 08:53:00,71.7,66.3,29.83,West,270,0.0,-999.0,83,0.00,,,0.09,Wunderground v.1.15,2013-06-15 13:53:00,
2013-06-15 08:58:00,71.7,66.3,29.83,West,270,0.0,-999.0,83,0.00,,,0.09,Wunderground v.1.15,2013-06-15 13:58:00,
2013-06-15 09:03:00,71.7,66.3,29.83,West,270,0.0,-999.0,83,0.00,,,0.09,Wunderground v.1.15,2013-06-15 14:03:00,
2013-06-15 09:08:00,71.7,66.3,29.83,West,270,0.0,-999.0,83,0.00,,,0.09,Wunderground v.1.15,2013-06-15 14:08:00,
2013-06-15 09:13:00,71.7,66.3,29.83,West,270,0.0,-999.0,83,0.00,,,0.09,Wunderground v.1.15,2013-06-15 14:13:00,
2013-06-15 09:18:00,73.0,66.8,29.84,NNW,338,0.0,-999.0,81,0.00,,,0.09,Wunderground v.1.15,2013-06-15 14:18:00,
2013-06-15 09:23:00,73.0,66.8,29.84,NNW,338,0.0,-999.0,81,0.00,,,0.09,Wunderground v.1.15,2013-06-15 14:23:00,
2013-06-15 09:28:00,73.0,66.8,29.84,NNW,338,0.0,-999.0,81,0.00,,,0.09,Wunderground v.1.15,2013-06-15 14:28:00,
2013-06-15 09:33:00,73.0,66.8,29.84,NNW,338,0.0,-999.0,81,0.00,,,0.09,Wunderground v.1.15,2013-06-15 14:33:00,
2013-06-15 09:38:00,73.0,66.8,29.84,NNW,338,0.0,-999.0,81,0.00,,,0.09,Wunderground v.1.15,2013-06-15 14:38:00,
2013-06-15 09:43:00,73.0,66.8,29.84,NNW,338,0.0,-999.0,81,0.00,,,0.09,Wunderground v.1.15,2013-06-15 14:43:00,
2013-06-15 09:48:00,74.6,67.7,29.84,NNW,338,1.0,-999.0,79,0.00,,,0.09,Wunderground v.1.15,2013-06-15 14:48:00,
2013-06-15 09:53:00,74.6,67.7,29.84,NNW,338,1.0,-999.0,79,0.00,,,0.09,Wunderground v.1.15,2013-06-15 14:53:00,
2013-06-15 09:58:00,74.6,67.7,29.84,NNW,338,1.0,-999.0,79,0.00,,,0.09,Wunderground v.1.15,2013-06-15 14:58:00,
2013-06-15 10:03:00,74.6,67.7,29.84,NNW,338,1.0,-999.0,79,0.00,,,0.09,Wunderground v.1.15,2013-06-15 15:03:00,
2013-06-15 10:08:00,74.6,67.7,29.84,NNW,338,1.0,-999.0,79,0.00,,,0.09,Wunderground v.1.15,2013-06-15 15:08:00,
2013-06-15 10:13:00,74.6,67.7,29.84,NNW,338,1.0,-999.0,79,0.00,,,0.09,Wunderground v.1.15,2013-06-15 15:13:00,
2013-06-15 10:18:00,75.8,68.1,29.83,NNW,338,0.0,-999.0,77,0.00,,,0.09,Wunderground v.1.15,2013-06-15 15:18:00,
2013-06-15 10:23:00,75.8,68.1,29.83,NNW,338,0.0,-999.0,77,0.00,,,0.09,Wunderground v.1.15,2013-06-15 15:23:00,
2013-06-15 10:28:00,75.8,68.1,29.83,NNW,338,0.0,-999.0,77,0.00,,,0.09,Wunderground v.1.15,2013-06-15 15:28:00,
2013-06-15 10:33:00,75.8,68.1,29.83,NNW,338,0.0,-999.0,77,0.00,,,0.09,Wunderground v.1.15,2013-06-15 15:33:00,
2013-06-15 10:38:00,75.8,68.1,29.83,NNW,338,0.0,-999.0,77,0.00,,,0.09,Wunderground v.1.15,2013-06-15 15:38:00,
2013-06-15 10:43:00,75.8,68.1,29.83,NNW,338,0.0,-999.0,77,0.00,,,0.09,Wunderground v.1.15,2013-06-15 15:43:00,
2013-06-15 10:48:00,76.3,67.8,29.82,NNE,23,0.0,-999.0,75,0.00,,,0.09,Wunderground v.1.15,2013-06-15 15:48:00,
2013-06-15 10:53:00,76.3,67.8,29.82,NNE,23,0.0,-999.0,75,0.00,,,0.09,Wunderground v.1.15,2013-06-15 15:53:00,
2013-06-15 10:58:00,76.3,67.8,29.82,NNE,23,0.0,-999.0,75,0.00,,,0.09,Wunderground v.1.15,2013-06-15 15:58:00,
2013-06-15 11:03:00,76.3,67.8,29.82,NNE,23,0.0,-999.0,75,0.00,,,0.09,Wunderground v.1.15,2013-06-15 16:03:00,
2013-06-15 11:08:00,76.3,67.8,29.82,NNE,23,0.0,-999.0,75,0.00,,,0.09,Wunderground v.1.15,2013-06-15 16:08:00,
2013-06-15 11:13:00,76.3,67.8,29.82,NNE,23,0.0,-999.0,75,0.00,,,0.09,Wunderground v.1.15,2013-06-15 16:13:00,
2013-06-15 11:18:00,75.7,68.0,29.81,North,0,0.0,-999.0,77,0.00,,,0.09,Wunderground v.1.15,2013-06-15 16:18:00,
2013-06-15 11:23:00,75.7,68.0,29.81,North,0,0.0,-999.0,77,0.00,,,0.09,Wunderground v.1.15,2013-06-15 16:23:00,
2013-06-15 11:28:00,75.7,68.0,29.81,North,0,0.0,-999.0,77,0.00,,,0.09,Wunderground v.1.15,2013-06-15 16:28:00,
2013-06-15 11:33:00,75.7,68.0,29.81,North,0,0.0,-999.0,77,0.00,,,0.09,Wunderground v.1.15,2013-06-15 16:33:00,
2013-06-15 11:38:00,75.7,68.0,29.81,North,0,0.0,-999.0,77,0.00,,,0.09,Wunderground v.1.15,2013-06-15 16:38:00,
2013-06-15 11:43:00,75.7,68.0,29.81,North,0,0.0,-999.0,77,0.00,,,0.09,Wunderground v.1.15,2013-06-15 16:43:00,
2013-06-15 11:48:00,75.9,67.8,29.84,NNE,23,0.0,-999.0,76,0.00,,,0.09,Wunderground v.1.15,2013-06-15 16:48:00,
2013-06-15 11:53:00,75.9,67.8,29.84,NNE,23,0.0,-999.0,76,0.00,,,0.09,Wunderground v.1.15,2013-06-15 16:53:00,
2013-06-15 11:58:00,75.9,67.8,29.84,NNE,23,0.0,-999.0,76,0.00,,,0.09,Wunderground v.1.15,2013-06-15 16:58:00,
2013-06-15 12:03:00,75.9,67.8,29.84,NNE,23,0.0,-999.0,76,0.00,,,0.09,Wunderground v.1.15,2013-06-15 17:03:00,
2013-06-15 12:08:00,75.9,67.8,29.84,NNE,23,0.0,-999.0,76,0.00,,,0.09,Wunderground v.1.15,2013-06-15 17:08:00,
2013-06-15 12:13:00,75.9,67.8,29.84,NNE,23,0.0,-999.0,76,0.00,,,0.09,Wunderground v.1.15,2013-06-15 17:13:00,
2013-06-15 12:18:00,74.8,67.1,29.84,NNE,23,0.0,-999.0,77,0.00,,,0.09,Wunderground v.1.15,2013-06-15 17:18:00,
2013-06-15 12:23:00,74.8,67.1,29.84,NNE,23,0.0,-999.0,77,0.00,,,0.09,Wunderground v.1.15,2013-06-15 17:23:00,
2013-06-15 12:28:00,74.8,67.1,29.84,NNE,23,0.0,-999.0,77,0.00,,,0.09,Wunderground v.1.15,2013-06-15 17:28:00,
2013-06-15 12:33:00,74.8,67.1,29.84,NNE,23,0.0,-999.0,77,0.00,,,0.09,Wunderground v.1.15,2013-06-15 17:33:00,
2013-06-15 12:38:00,74.8,67.1,29.84,NNE,23,0.0,-999.0,77,0.00,,,0.09,Wunderground v.1.15,2013-06-15 17:38:00,
2013-06-15 12:43:00,74.8,67.1,29.84,NNE,23,0.0,-999.0,77,0.00,,,0.09,Wunderground v.1.15,2013-06-15 17:43:00,
2013-06-15 12:48:00,73.2,67.4,29.84,N/A,-737280,0.0,-999.0,82,0.01,,,0.09,Wunderground v.1.15,2013-06-15 17:48:00,
2013-06-15 12:53:00,73.2,67.4,29.84,N/A,-737280,0.0,-999.0,82,0.01,,,0.09,Wunderground v.1.15,2013-06-15 17:53:00,
2013-06-15 12:58:00,73.2,67.4,29.84,N/A,-737280,0.0,-999.0,82,0.01,,,0.09,Wunderground v.1.15,2013-06-15 17:58:00,
2013-06-15 13:03:00,73.2,67.4,29.84,N/A,-737280,0.0,-999.0,82,0.01,,,0.09,Wunderground v.1.15,2013-06-15 18:03:00,
2013-06-15 13:08:00,73.2,67.4,29.84,N/A,-737280,0.0,-999.0,82,0.01,,,0.09,Wunderground v.1.15,2013-06-15 18:08:00,
2013-06-15 13:13:00,73.2,67.4,29.84,N/A,-737280,0.0,-999.0,82,0.01,,,0.09,Wunderground v.1.15,2013-06-15 18:13:00,
2013-06-15 13:18:00,71.9,67.1,29.83,N/A,-737280,0.0,-999.0,85,0.01,,,0.09,Wunderground v.1.15,2013-06-15 18:18:00,
2013-06-15 13:23:00,71.9,67.1,29.83,N/A,-737280,0.0,-999.0,85,0.01,,,0.09,Wunderground v.1.15,2013-06-15 18:23:00,
2013-06-15 13:28:00,71.9,67.1,29.83,N/A,-737280,0.0,-999.0,85,0.01,,,0.09,Wunderground v.1.15,2013-06-15 18:28:00,
2013-06-15 13:33:00,71.9,67.1,29.83,N/A,-737280,0.0,-999.0,85,0.01,,,0.09,Wunderground v.1.15,2013-06-15 18:33:00,
2013-06-15 13:38:00,71.9,67.1,29.83,N/A,-737280,0.0,-999.0,85,0.01,,,0.09,Wunderground v.1.15,2013-06-15 18:38:00,
2013-06-15 13:43:00,71.9,67.1,29.83,N/A,-737280,0.0,-999.0,85,0.01,,,0.09,Wunderground v.1.15,2013-06-15 18:43:00,
2013-06-15 13:48:00,71.3,67.2,29.83,N/A,-737280,0.0,-999.0,87,0.00,,,0.09,Wunderground v.1.15,2013-06-15 18:48:00,
2013-06-15 13:53:00,71.3,67.2,29.83,N/A,-737280,0.0,-999.0,87,0.00,,,0.09,Wunderground v.1.15,2013-06-15 18:53:00,
2013-06-15 13:58:00,71.3,67.2,29.83,N/A,-737280,0.0,-999.0,87,0.00,,,0.09,Wunderground v.1.15,2013-06-15 18:58:00,
2013-06-15 14:03:00,71.3,67.2,29.83,N/A,-737280,0.0,-999.0,87,0.00,,,0.09,Wunderground v.1.15,2013-06-15 19:03:00,
2013-06-15 14:08:00,71.3,67.2,29.83,N/A,-737280,0.0,-999.0,87,0.00,,,0.09,Wunderground v.1.15,2013-06-15 19:08:00,
2013-06-15 14:13:00,71.3,67.2,29.83,N/A,-737280,0.0,-999.0,87,0.00,,,0.09,Wunderground v.1.15,2013-06-15 19:13:00,
2013-06-15 14:18:00,71.3,67.6,29.82,N/A,-737280,0.0,-999.0,88,0.00,,,0.09,Wunderground v.1.15,2013-06-15 19:18:00,
2013-06-15 14:23:00,71.3,67.6,29.82,N/A,-737280,0.0,-999.0,88,0.00,,,0.09,Wunderground v.1.15,2013-06-15 19:23:00,
2013-06-15 14:28:00,71.3,67.6,29.82,N/A,-737280,0.0,-999.0,88,0.00,,,0.09,Wunderground v.1.15,2013-06-15 19:28:00,
2013-06-15 14:33:00,71.3,67.6,29.82,N/A,-737280,0.0,-999.0,88,0.00,,,0.09,Wunderground v.1.15,2013-06-15 19:33:00,
2013-06-15 14:38:00,71.3,67.6,29.82,N/A,-737280,0.0,-999.0,88,0.00,,,0.09,Wunderground v.1.15,2013-06-15 19:38:00,
2013-06-15 14:43:00,71.3,67.6,29.82,N/A,-737280,0.0,-999.0,88,0.00,,,0.09,Wunderground v.1.15,2013-06-15 19:43:00,
2013-06-15 14:48:00,71.3,67.6,29.82,NNE,23,0.0,-999.0,88,0.00,,,0.09,Wunderground v.1.15,2013-06-15 19:48:00,
2013-06-15 14:53:00,71.3,67.6,29.82,NNE,23,0.0,-999.0,88,0.00,,,0.09,Wunderground v.1.15,2013-06-15 19:53:00,
2013-06-15 14:58:00,71.3,67.6,29.82,NNE,23,0.0,-999.0,88,0.00,,,0.09,Wunderground v.1.15,2013-06-15 19:58:00,
2013-06-15 15:03:00,71.3,67.6,29.82,NNE,23,0.0,-999.0,88,0.00,,,0.09,Wunderground v.1.15,2013-06-15 20:03:00,
2013-06-15 15:08:00,71.3,67.6,29.82,NNE,23,0.0,-999.0,88,0.00,,,0.09,Wunderground v.1.15,2013-06-15 20:08:00,
2013-06-15 15:13:00,71.3,67.6,29.82,NNE,23,0.0,-999.0,88,0.00,,,0.09,Wunderground v.1.15,2013-06-15 20:13:00,
2013-06-15 15:18:00,66.8,60.1,29.86,SW,225,1.0,-999.0,79,0.03,,,0.09,Wunderground v.1.15,2013-06-15 20:18:00,
2013-06-15 15:23:00,66.8,60.1,29.86,SW,225,1.0,-999.0,79,0.03,,,0.09,Wunderground v.1.15,2013-06-15 20:23:00,
2013-06-15 15:28:00,66.8,60.1,29.86,SW,225,1.0,-999.0,79,0.03,,,0.09,Wunderground v.1.15,2013-06-15 20:28:00,
2013-06-15 15:33:00,66.8,60.1,29.86,SW,225,1.0,-999.0,79,0.03,,,0.09,Wunderground v.1.15,2013-06-15 20:33:00,
2013-06-15 15:38:00,66.8,60.1,29.86,SW,225,1.0,-999.0,79,0.03,,,0.09,Wunderground v.1.15,2013-06-15 20:38:00,
2013-06-15 15:43:00,66.8,60.1,29.86,SW,225,1.0,-999.0,79,0.03,,,0.09,Wunderground v.1.15,2013-06-15 20:43:00,
2013-06-15 15:48:00,66.1,62.4,29.85,South,180,0.0,-999.0,88,0.08,,,0.09,Wunderground v.1.15,2013-06-15 20:48:00,
2013-06-15 15:53:00,66.1,62.4,29.85,South,180,0.0,-999.0,88,0.08,,,0.09,Wunderground v.1.15,2013-06-15 20:53:00,
2013-06-15 15:58:00,66.1,62.4,29.85,South,180,0.0,-999.0,88,0.08,,,0.09,Wunderground v.1.15,2013-06-15 20:58:00,
2013-06-15 16:03:00,66.1,62.4,29.85,South,180,0.0,-999.0,88,0.08,,,0.09,Wunderground v.1.15,2013-06-15 21:03:00,
2013-06-15 16:08:00,66.1,62.4,29.85,South,180,0.0,-999.0,88,0.08,,,0.09,Wunderground v.1.15,2013-06-15 21:08:00,
2013-06-15 16:13:00,66.1,62.4,29.85,South,180,0.0,-999.0,88,0.08,,,0.09,Wunderground v.1.15,2013-06-15 21:13:00,
2013-06-15 16:18:00,67.9,63.9,29.83,N/A,-737280,0.0,-999.0,87,0.05,,,0.09,Wunderground v.1.15,2013-06-15 21:18:00,
2013-06-15 16:23:00,67.9,63.9,29.83,N/A,-737280,0.0,-999.0,87,0.05,,,0.09,Wunderground v.1.15,2013-06-15 21:23:00,
2013-06-15 16:28:00,67.9,63.9,29.83,N/A,-737280,0.0,-999.0,87,0.05,,,0.09,Wunderground v.1.15,2013-06-15 21:28:00,
2013-06-15 16:33:00,67.9,63.9,29.83,N/A,-737280,0.0,-999.0,87,0.05,,,0.09,Wunderground v.1.15,2013-06-15 21:33:00,
2013-06-15 16:38:00,67.9,63.9,29.83,N/A,-737280,0.0,-999.0,87,0.05,,,0.09,Wunderground v.1.15,2013-06-15 21:38:00,
2013-06-15 16:43:00,67.9,63.9,29.83,N/A,-737280,0.0,-999.0,87,0.05,,,0.09,Wunderground v.1.15,2013-06-15 21:43:00,
2013-06-15 16:48:00,69.7,65.3,29.81,N/A,-737280,0.0,-999.0,86,0.00,,,0.09,Wunderground v.1.15,2013-06-15 21:48:00,
2013-06-15 16:53:00,69.7,65.3,29.81,N/A,-737280,0.0,-999.0,86,0.00,,,0.09,Wunderground v.1.15,2013-06-15 21:53:00,
2013-06-15 16:58:00,69.7,65.3,29.81,N/A,-737280,0.0,-999.0,86,0.00,,,0.09,Wunderground v.1.15,2013-06-15 21:58:00,
2013-06-15 17:03:00,69.7,65.3,29.81,N/A,-737280,0.0,-999.0,86,0.00,,,0.09,Wunderground v.1.15,2013-06-15 22:03:00,
2013-06-15 17:08:00,69.7,65.3,29.81,N/A,-737280,0.0,-999.0,86,0.00,,,0.09,Wunderground v.1.15,2013-06-15 22:08:00,
2013-06-15 17:13:00,69.7,65.3,29.81,N/A,-737280,0.0,-999.0,86,0.00,,,0.09,Wunderground v.1.15,2013-06-15 22:13:00,
2013-06-15 17:18:00,72.7,63.9,29.81,SW,225,0.0,-999.0,74,0.00,,,0.09,Wunderground v.1.15,2013-06-15 22:18:00,
2013-06-15 17:23:00,72.7,63.9,29.81,SW,225,0.0,-999.0,74,0.00,,,0.09,Wunderground v.1.15,2013-06-15 22:23:00,
2013-06-15 17:28:00,72.7,63.9,29.81,SW,225,0.0,-999.0,74,0.00,,,0.09,Wunderground v.1.15,2013-06-15 22:28:00,
2013-06-15 17:33:00,72.7,63.9,29.81,SW,225,0.0,-999.0,74,0.00,,,0.09,Wunderground v.1.15,2013-06-15 22:33:00,
2013-06-15 17:38:00,72.7,63.9,29.81,SW,225,0.0,-999.0,74,0.00,,,0.09,Wunderground v.1.15,2013-06-15 22:38:00,
2013-06-15 17:43:00,72.7,63.9,29.81,SW,225,0.0,-999.0,74,0.00,,,0.09,Wunderground v.1.15,2013-06-15 22:43:00,
2013-06-15 17:48:00,75.5,64.6,29.79,N/A,-737280,0.0,-999.0,69,0.00,,,0.09,Wunderground v.1.15,2013-06-15 22:48:00,
2013-06-15 17:53:00,75.5,64.6,29.79,N/A,-737280,0.0,-999.0,69,0.00,,,0.09,Wunderground v.1.15,2013-06-15 22:53:00,
2013-06-15 17:58:00,75.5,64.6,29.79,N/A,-737280,0.0,-999.0,69,0.00,,,0.09,Wunderground v.1.15,2013-06-15 22:58:00,
2013-06-15 18:03:00,75.5,64.6,29.79,N/A,-737280,0.0,-999.0,69,0.00,,,0.09,Wunderground v.1.15,2013-06-15 23:03:00,
2013-06-15 18:08:00,75.5,64.6,29.79,N/A,-737280,0.0,-999.0,69,0.00,,,0.09,Wunderground v.1.15,2013-06-15 23:08:00,
2013-06-15 18:13:00,75.5,64.6,29.79,N/A,-737280,0.0,-999.0,69,0.00,,,0.09,Wunderground v.1.15,2013-06-15 23:13:00,
2013-06-15 18:18:00,77.0,66.5,29.79,N/A,-737280,0.0,-999.0,70,0.00,,,0.09,Wunderground v.1.15,2013-06-15 23:18:00,
2013-06-15 18:23:00,77.0,66.5,29.79,N/A,-737280,0.0,-999.0,70,0.00,,,0.09,Wunderground v.1.15,2013-06-15 23:23:00,
2013-06-15 18:28:00,77.0,66.5,29.79,N/A,-737280,0.0,-999.0,70,0.00,,,0.09,Wunderground v.1.15,2013-06-15 23:28:00,
2013-06-15 18:33:00,77.0,66.5,29.79,N/A,-737280,0.0,-999.0,70,0.00,,,0.09,Wunderground v.1.15,2013-06-15 23:33:00,
2013-06-15 18:38:00,77.0,66.5,29.79,N/A,-737280,0.0,-999.0,70,0.00,,,0.09,Wunderground v.1.15,2013-06-15 23:38:00,
2013-06-15 18:43:00,77.0,66.5,29.79,N/A,-737280,0.0,-999.0,70,0.00,,,0.09,Wunderground v.1.15,2013-06-15 23:43:00,
2013-06-15 18:48:00,75.0,64.1,29.79,N/A,-737280,0.0,-999.0,69,0.00,,,0.09,Wunderground v.1.15,2013-06-15 23:48:00,
2013-06-15 18:53:00,75.0,64.1,29.79,N/A,-737280,0.0,-999.0,69,0.00,,,0.09,Wunderground v.1.15,2013-06-15 23:53:00,
2013-06-15 18:58:00,75.0,64.1,29.79,N/A,-737280,0.0,-999.0,69,0.00,,,0.09,Wunderground v.1.15,2013-06-15 23:58:00,
2013-06-15 19:03:00,75.0,64.1,29.79,N/A,-737280,0.0,-999.0,69,0.00,,,0.09,Wunderground v.1.15,2013-06-16 00:03:00,
2013-06-15 19:08:00,75.0,64.1,29.79,N/A,-737280,0.0,-999.0,69,0.00,,,0.09,Wunderground v.1.15,2013-06-16 00:08:00,
2013-06-15 19:13:00,75.0,64.1,29.79,N/A,-737280,0.0,-999.0,69,0.00,,,0.09,Wunderground v.1.15,2013-06-16 00:13:00,
2013-06-15 19:18:00,73.6,64.0,29.80,SW,225,0.0,-999.0,72,0.00,,,0.09,Wunderground v.1.15,2013-06-16 00:18:00,
2013-06-15 19:23:00,73.6,64.0,29.80,SW,225,0.0,-999.0,72,0.00,,,0.09,Wunderground v.1.15,2013-06-16 00:23:00,
2013-06-15 19:28:00,73.6,64.0,29.80,SW,225,0.0,-999.0,72,0.00,,,0.09,Wunderground v.1.15,2013-06-16 00:28:00,
2013-06-15 19:33:00,73.6,64.0,29.80,SW,225,0.0,-999.0,72,0.00,,,0.09,Wunderground v.1.15,2013-06-16 00:33:00,
2013-06-15 19:38:00,73.6,64.0,29.80,SW,225,0.0,-999.0,72,0.00,,,0.09,Wunderground v.1.15,2013-06-16 00:38:00,
2013-06-15 19:43:00,73.6,64.0,29.80,SW,225,0.0,-999.0,72,0.00,,,0.09,Wunderground v.1.15,2013-06-16 00:43:00,
2013-06-15 19:48:00,72.5,64.1,29.80,N/A,-737280,0.0,-999.0,75,0.00,,,0.09,Wunderground v.1.15,2013-06-16 00:48:00,
2013-06-15 19:53:00,72.5,64.1,29.80,N/A,-737280,0.0,-999.0,75,0.00,,,0.09,Wunderground v.1.15,2013-06-16 00:53:00,
2013-06-15 19:58:00,72.5,64.1,29.80,N/A,-737280,0.0,-999.0,75,0.00,,,0.09,Wunderground v.1.15,2013-06-16 00:58:00,
2013-06-15 20:03:00,72.5,64.1,29.80,N/A,-737280,0.0,-999.0,75,0.00,,,0.09,Wunderground v.1.15,2013-06-16 01:03:00,
2013-06-15 20:08:00,72.5,64.1,29.80,N/A,-737280,0.0,-999.0,75,0.00,,,0.09,Wunderground v.1.15,2013-06-16 01:08:00,
2013-06-15 20:13:00,72.5,64.1,29.80,N/A,-737280,0.0,-999.0,75,0.00,,,0.09,Wunderground v.1.15,2013-06-16 01:13:00,
2013-06-15 20:18:00,70.5,63.7,29.80,N/A,-737280,0.0,-999.0,79,0.00,,,0.09,Wunderground v.1.15,2013-06-16 01:18:00,
2013-06-15 20:23:00,70.5,63.7,29.80,N/A,-737280,0.0,-999.0,79,0.00,,,0.09,Wunderground v.1.15,2013-06-16 01:23:00,
2013-06-15 20:28:00,70.5,63.7,29.80,N/A,-737280,0.0,-999.0,79,0.00,,,0.09,Wunderground v.1.15,2013-06-16 01:28:00,
2013-06-15 20:33:00,70.5,63.7,29.80,N/A,-737280,0.0,-999.0,79,0.00,,,0.09,Wunderground v.1.15,2013-06-16 01:33:00,
2013-06-15 20:38:00,70.5,63.7,29.80,N/A,-737280,0.0,-999.0,79,0.00,,,0.09,Wunderground v.1.15,2013-06-16 01:38:00,
2013-06-15 20:43:00,70.5,63.7,29.80,N/A,-737280,0.0,-999.0,79,0.00,,,0.09,Wunderground v.1.15,2013-06-16 01:43:00,
2013-06-15 20:48:00,68.3,62.2,29.81,N/A,-737280,0.0,-999.0,81,0.00,,,0.09,Wunderground v.1.15,2013-06-16 01:48:00,
2013-06-15 20:53:00,68.3,62.2,29.81,N/A,-737280,0.0,-999.0,81,0.00,,,0.09,Wunderground v.1.15,2013-06-16 01:53:00,
2013-06-15 20:58:00,68.3,62.2,29.81,N/A,-737280,0.0,-999.0,81,0.00,,,0.09,Wunderground v.1.15,2013-06-16 01:58:00,
2013-06-15 21:03:00,68.3,62.2,29.81,N/A,-737280,0.0,-999.0,81,0.00,,,0.09,Wunderground v.1.15,2013-06-16 02:03:00,
2013-06-15 21:08:00,68.3,62.2,29.81,N/A,-737280,0.0,-999.0,81,0.00,,,0.09,Wunderground v.1.15,2013-06-16 02:08:00,
2013-06-15 21:13:00,68.3,62.2,29.81,N/A,-737280,0.0,-999.0,81,0.00,,,0.09,Wunderground v.1.15,2013-06-16 02:13:00,
2013-06-15 21:18:00,66.6,61.6,29.83,SW,225,0.0,-999.0,84,0.00,,,0.09,Wunderground v.1.15,2013-06-16 02:18:00,
2013-06-15 21:23:00,66.6,61.6,29.83,SW,225,0.0,-999.0,84,0.00,,,0.09,Wunderground v.1.15,2013-06-16 02:23:00,
2013-06-15 21:28:00,66.6,61.6,29.83,SW,225,0.0,-999.0,84,0.00,,,0.09,Wunderground v.1.15,2013-06-16 02:28:00,
2013-06-15 21:33:00,66.6,61.6,29.83,SW,225,0.0,-999.0,84,0.00,,,0.09,Wunderground v.1.15,2013-06-16 02:33:00,
2013-06-15 21:38:00,66.6,61.6,29.83,SW,225,0.0,-999.0,84,0.00,,,0.09,Wunderground v.1.15,2013-06-16 02:38:00,
2013-06-15 21:43:00,66.6,61.6,29.83,SW,225,0.0,-999.0,84,0.00,,,0.09,Wunderground v.1.15,2013-06-16 02:43:00,
2013-06-15 21:48:00,65.6,61.0,29.84,N/A,-737280,0.0,-999.0,85,0.00,,,0.09,Wunderground v.1.15,2013-06-16 02:48:00,
2013-06-15 21:53:00,65.6,61.0,29.84,N/A,-737280,0.0,-999.0,85,0.00,,,0.09,Wunderground v.1.15,2013-06-16 02:53:00,
2013-06-15 21:58:00,65.6,61.0,29.84,N/A,-737280,0.0,-999.0,85,0.00,,,0.09,Wunderground v.1.15,2013-06-16 02:58:00,
2013-06-15 22:03:00,65.6,61.0,29.84,N/A,-737280,0.0,-999.0,85,0.00,,,0.09,Wunderground v.1.15,2013-06-16 03:03:00,
2013-06-15 22:08:00,65.6,61.0,29.84,N/A,-737280,0.0,-999.0,85,0.00,,,0.09,Wunderground v.1.15,2013-06-16 03:08:00,
2013-06-15 22:13:00,65.6,61.0,29.84,N/A,-737280,0.0,-999.0,85,0.00,,,0.09,Wunderground v.1.15,2013-06-16 03:13:00,
2013-06-15 22:18:00,64.5,58.9,29.84,N/A,-737280,0.0,-999.0,82,0.00,,,0.09,Wunderground v.1.15,2013-06-16 03:18:00,
2013-06-15 22:23:00,64.5,58.9,29.84,N/A,-737280,0.0,-999.0,82,0.00,,,0.09,Wunderground v.1.15,2013-06-16 03:23:00,
2013-06-15 22:28:00,64.5,58.9,29.84,N/A,-737280,0.0,-999.0,82,0.00,,,0.09,Wunderground v.1.15,2013-06-16 03:28:00,
2013-06-15 22:33:00,64.5,58.9,29.84,N/A,-737280,0.0,-999.0,82,0.00,,,0.09,Wunderground v.1.15,2013-06-16 03:33:00,
2013-06-15 22:38:00,64.5,58.9,29.84,N/A,-737280,0.0,-999.0,82,0.00,,,0.09,Wunderground v.1.15,2013-06-16 03:38:00,
2013-06-15 22:43:00,64.5,58.9,29.84,N/A,-737280,0.0,-999.0,82,0.00,,,0.09,Wunderground v.1.15,2013-06-16 03:43:00,
2013-06-15 22:48:00,63.4,55.7,29.84,N/A,-737280,0.0,-999.0,76,0.00,,,0.09,Wunderground v.1.15,2013-06-16 03:48:00,
2013-06-15 22:53:00,63.4,55.7,29.84,N/A,-737280,0.0,-999.0,76,0.00,,,0.09,Wunderground v.1.15,2013-06-16 03:53:00,
2013-06-15 22:58:00,63.4,55.7,29.84,N/A,-737280,0.0,-999.0,76,0.00,,,0.09,Wunderground v.1.15,2013-06-16 03:58:00,
2013-06-15 23:03:00,63.4,55.7,29.84,N/A,-737280,0.0,-999.0,76,0.00,,,0.09,Wunderground v.1.15,2013-06-16 04:03:00,
2013-06-15 23:08:00,63.4,55.7,29.84,N/A,-737280,0.0,-999.0,76,0.00,,,0.09,Wunderground v.1.15,2013-06-16 04:08:00,
2013-06-15 23:13:00,63.4,55.7,29.84,N/A,-737280,0.0,-999.0,76,0.00,,,0.09,Wunderground v.1.15,2013-06-16 04:13:00,
2013-06-15 23:18:00,62.3,54.6,29.84,N/A,-737280,0.0,-999.0,76,0.00,,,0.09,Wunderground v.1.15,2013-06-16 04:18:00,
2013-06-15 23:23:00,62.3,54.6,29.84,N/A,-737280,0.0,-999.0,76,0.00,,,0.09,Wunderground v.1.15,2013-06-16 04:23:00,
2013-06-15 23:28:00,62.3,54.6,29.84,N/A,-737280,0.0,-999.0,76,0.00,,,0.09,Wunderground v.1.15,2013-06-16 04:28:00,
2013-06-15 23:33:00,62.3,54.6,29.84,N/A,-737280,0.0,-999.0,76,0.00,,,0.09,Wunderground v.1.15,2013-06-16 04:33:00,
2013-06-15 23:38:00,62.3,54.6,29.84,N/A,-737280,0.0,-999.0,76,0.00,,,0.09,Wunderground v.1.15,2013-06-16 04:38:00,
2013-06-15 23:43:00,62.3,54.6,29.84,N/A,-737280,0.0,-999.0,76,0.00,,,0.09,Wunderground v.1.15,2013-06-16 04:43:00,
2013-06-15 23:48:00,61.2,54.3,29.84,N/A,-737280,0.0,-999.0,78,0.00,,,0.09,Wunderground v.1.15,2013-06-16 04:48:00,
2013-06-15 23:53:00,61.2,54.3,29.84,N/A,-737280,0.0,-999.0,78,0.00,,,0.09,Wunderground v.1.15,2013-06-16 04:53:00,
2013-06-15 23:58:00,61.2,54.3,29.84,N/A,-737280,0.0,-999.0,78,0.00,,,0.09,Wunderground v.1.15,2013-06-16 04:58:00,